This is the latest recevied weather packets stored in our database for station/object PD2BVG. If no packets are shown the sender has not sent any weather packets the latest 10 day(s).
| Time | Temp. | Humidity | Pressure | Rain* | Wind** | Luminosity | Snow |
|---|---|---|---|---|---|---|---|
| 1787861032 | 20° C | 96% | 1010.2 hPa | 16.51 mm | - | 0 W/m² | - |
| 1787860973 | 20° C | 96% | 1010.4 hPa | 16.26 mm | - | 0 W/m² | - |
| 1787860913 | 20° C | 96% | 1010.4 hPa | 15.49 mm | - | 0 W/m² | - |
| 1787860852 | 20.56° C | 95% | 1010.4 hPa | 15.24 mm | - | 0 W/m² | - |
| 1787860792 | 20.56° C | 95% | 1010.6 hPa | 13.97 mm | - | 0 W/m² | - |
| 1787860732 | 20.56° C | 95% | 1010.7 hPa | 12.95 mm | - | 0 W/m² | - |
| 1787860672 | 20.56° C | 95% | 1010.8 hPa | 11.94 mm | - | 0 W/m² | - |
| 1787860614 | 20.56° C | 95% | 1010.8 hPa | 11.43 mm | - | 0 W/m² | - |
| 1787860555 | 20.56° C | 94% | 1010.8 hPa | 10.92 mm | - | 0 W/m² | - |
| 1787860493 | 20.56° C | 94% | 1010.8 hPa | 9.91 mm | - | 0 W/m² | - |
| 1787860433 | 20.56° C | 94% | 1010.7 hPa | 9.14 mm | - | 0 W/m² | - |
| 1787860371 | 20.56° C | 93% | 1010.8 hPa | 7.87 mm | - | 0 W/m² | - |
| 1787860312 | 21.11° C | 93% | 1010.5 hPa | 6.1 mm | - | 0 W/m² | - |
| 1787860251 | 21.11° C | 93% | 1010.5 hPa | 4.32 mm | - | 0 W/m² | - |
| 1787860192 | 21.11° C | 92% | 1010.4 hPa | 2.29 mm | - | 0 W/m² | - |
| 1787860132 | 21.11° C | 91% | 1010.2 hPa | 1.27 mm | - | 0 W/m² | - |
| 1787860072 | 21.11° C | 91% | 1010.2 hPa | 1.27 mm | - | 0 W/m² | - |
| 1787860012 | 21.11° C | 91% | 1010 hPa | 1.02 mm | - | 0 W/m² | - |
| 1787859952 | 21.11° C | 90% | 1009.6 hPa | 1.02 mm | - | 0 W/m² | - |
| 1787859892 | 21.11° C | 89% | 1009.6 hPa | 0.76 mm | - | 0 W/m² | - |
| 1787859832 | 21.11° C | 89% | 1009.6 hPa | 0.76 mm | - | 0 W/m² | - |
| 1787859773 | 21.11° C | 88% | 1009.5 hPa | 0.51 mm | - | 0 W/m² | - |
| 1787859712 | 21.67° C | 88% | 1009.2 hPa | 0.25 mm | - | 0 W/m² | - |
| 1787859655 | 21.67° C | 87% | 1009.2 hPa | 0 mm | - | 0 W/m² | - |
| 1787859594 | 21.67° C | 87% | 1009.2 hPa | 0 mm | - | 0 W/m² | - |
* Rain latest hour (hover to see other rain measurements)
** Current wind speed in m/s (hover to see current wind gust speed)